, AK

(GMT )
Anchorage

Weather History for PANC - January, 2013

Change the Weather History Date:

Friday, January 11, 2013

  Actual Average Record
Temperature  
Mean Temperature 24 °F 17 °F  
Max Temperature 27 °F 23 °F 40 °F (1989)
Min Temperature 21 °F 11 °F -28 °F (1972)
Degree Days  
Heating Degree Days 41    
Month to date heating degree days 424  
Since 1 July heating degree days 5435  
Cooling Degree Days 0    
Month to date cooling degree days 0  
Year to date cooling degree days 0  
Moisture  
Dew Point 21 °F    
Average Humidity 85    
Maximum Humidity 92    
Minimum Humidity 78    
Precipitation  
Precipitation T in 0.02 in 0.34 in (1963)
Month to date precipitation 0.04 0.28  
Year to date precipitation 0.04 0.28  
Snow  
Snow T in 0.30 in 4.70 in (1963)
Month to date snowfall 0.7 4.2  
Since 1 July snowfall 25.6 42.3  
Since 1 September snowfall 42.3  
Snow Depth 9.00 in    
Sea Level Pressure  
Sea Level Pressure 30.05 in    
Wind  
Wind Speed 5 mph (NNE)    
Max Wind Speed 9 mph    
Max Gust Speed -    
Visibility 9 miles    
Events Snow    
T = Trace of Precipitation, MM = Missing Value Source: NWS Daily Summary

Daily Weather History Graph

Daily Weather History Graph

Search for Another Location

Airport or City:

Astronomy

Jan. 11, 2013 Rise Set
Actual Time 10:02 AM AKST 4:14 PM AKST
Civil Twilight 9:05 AM AKST 5:11 PM AKST
Nautical Twilight 8:08 AM AKST 6:08 PM AKST
Astronomical Twilight 7:15 AM AKST 7:01 PM AKST
Moon 9:24 AM AKST (1/11) 5:07 PM AKST (1/11)
Length of Visible Light 8h 06m
Length of Day
6h 11m
New Moon, 0% of the Moon is Illuminated
Jan 11
New Moon
Jan 18
First Quarter
Jan 26
Full
Feb 3
Last Quarter
Feb 9
New

Hourly Weather History & Observations

Time (AKST) Temp. Windchill Dew Point Humidity Pressure Visibility Wind Dir Wind Speed Gust Speed Precip Events Conditions
12:25 AM 23.0 °F 13.1 °F 19.4 °F 86% 29.98 in 5.0 mi North 9.2 mph - N/A   Overcast
12:53 AM 21.9 °F 15.7 °F 19.0 °F 89% 29.99 in 10.0 mi North 4.6 mph - N/A   Mostly Cloudy
1:23 AM 21.2 °F 12.6 °F 19.4 °F 93% 29.96 in 10.0 mi North 6.9 mph - N/A   Mostly Cloudy
1:53 AM 21.9 °F 14.5 °F 19.0 °F 89% 29.97 in 10.0 mi NNE 5.8 mph - N/A   Mostly Cloudy
3:53 AM 23.0 °F 18.4 °F 19.0 °F 85% 29.98 in 10.0 mi NNE 3.5 mph - N/A   Overcast
4:53 AM 24.1 °F 19.7 °F 19.0 °F 81% 29.98 in 10.0 mi Variable 3.5 mph - N/A   Overcast
5:53 AM 24.1 °F 18.2 °F 19.9 °F 84% 29.96 in 10.0 mi NE 4.6 mph - N/A   Overcast
6:53 AM 25.0 °F 16.3 °F 19.0 °F 78% 29.96 in 10.0 mi NNE 8.1 mph - N/A   Overcast
7:53 AM 25.0 °F 17.1 °F 19.9 °F 81% 29.97 in 10.0 mi NNW 6.9 mph - N/A   Overcast
8:53 AM 25.0 °F 17.1 °F 21.0 °F 85% 29.99 in 10.0 mi NNW 6.9 mph - 0.00 in Snow Light Snow
9:53 AM 25.0 °F 19.3 °F 21.9 °F 88% 30.00 in 10.0 mi NE 4.6 mph - 0.00 in Snow Light Snow
10:53 AM 26.6 °F 21.2 °F 21.2 °F 80% 30.01 in 10.0 mi ENE 4.6 mph - N/A Snow Light Snow
11:53 AM 27.0 °F 21.6 °F 23.0 °F 85% 30.04 in 10.0 mi NNW 4.6 mph - 0.00 in Snow Light Snow
12:12 PM 24.8 °F 14.6 °F 21.2 °F 86% 30.04 in 7.0 mi North 10.4 mph - 0.00 in Snow Light Snow
12:32 PM 24.8 °F 17.9 °F 21.2 °F 86% 30.05 in 7.0 mi North 5.8 mph - 0.00 in Snow Light Snow
12:53 PM 26.1 °F 21.9 °F 21.0 °F 81% 30.07 in 7.0 mi North 3.5 mph - 0.00 in Snow Light Snow
1:53 PM 27.0 °F 21.6 °F 21.9 °F 81% 30.08 in 6.0 mi NNE 4.6 mph - 0.00 in Snow Light Snow
2:53 PM 27.0 °F 21.6 °F 21.0 °F 78% 30.09 in 10.0 mi NE 4.6 mph - 0.00 in   Mostly Cloudy
3:53 PM 27.0 °F 20.5 °F 21.9 °F 81% 30.11 in 10.0 mi NNE 5.8 mph - N/A   Overcast
4:53 PM 27.0 °F 23.0 °F 21.9 °F 81% 30.10 in 10.0 mi Variable 3.5 mph - N/A   Overcast
5:53 PM 28.0 °F 24.2 °F 23.0 °F 81% 30.13 in 10.0 mi NNE 3.5 mph - N/A   Overcast
6:53 PM 28.0 °F - 24.1 °F 85% 30.14 in 10.0 mi Calm Calm - N/A   Overcast
7:53 PM 27.0 °F 20.5 °F 23.0 °F 85% 30.14 in 10.0 mi NNE 5.8 mph - N/A   Overcast
8:53 PM 27.0 °F - 24.1 °F 89% 30.14 in 10.0 mi Calm Calm - N/A   Overcast
9:53 PM 27.0 °F 21.6 °F 23.0 °F 85% 30.14 in 10.0 mi NNW 4.6 mph - N/A   Overcast
10:53 PM 25.0 °F 17.1 °F 21.9 °F 88% 30.13 in 10.0 mi NNE 6.9 mph - N/A   Mostly Cloudy
11:53 PM 26.1 °F 19.4 °F 23.0 °F 88% 30.12 in 10.0 mi NNW 5.8 mph - N/A   Mostly Cloudy